QPF
0.03 0.04 0.04 0.08 0.11 0.10 0.07 0.06 0.03 0.02 0.02 0.02 0.01 0.01 0.01 0.01 0.01 0.01 0.01 0.02 0.03 0.07 0.09 0.09 0.09 0.08 0.09 0.10 0.11 0.12 0.11 0.08 0.06 0.06 0.07 0.07 0.08 0.08 0.06 0.04 0.04 0.05 0.05
0.02 0.03 0.04 0.05 0.06 0.05 0.04 0.02 0.01 0.02 0.02 0.02 0.01 0.01 0.01 0.01 0.01 0.01 0.02 0.01 0.02 0.04 0.08 0.10 0.09 0.09 0.09 0.10 0.11 0.07 0.07 0.07 0.06 0.06 0.06 0.05 0.05 0.05 0.06 0.06 0.06 0.06 0.06
0.03 0.04 0.04 0.04 0.04 0.03 0.03 0.04 0.03 0.02 0.02 0.01 0.01 0.01 0.01 0.01 0.01 0.01 0.02 0.03 0.04 0.05 0.11 0.14 0.12 0.09 0.08 0.08 0.08 0.05 0.04 0.03 0.03 0.04 0.06 0.06 0.05 0.04 0.04 0.05 0.05 0.07 0.08
0.03 0.03 0.02 0.02 0.02 0.02 0.03 0.02 0.02 0.02 0.01 0.01 0.01 0.01 0.02 0.02 0.02 0.03 0.04 0.05 0.07 0.12 0.13 0.11 0.09 0.09 0.09 0.09 0.08 0.06 0.05 0.04 0.03 0.03 0.03 0.03 0.03 0.03 0.04 0.05 0.03 0.04 0.05
0.02 0.01 0.01 0.01 0.01 0.01 0.01 0.01 0.01 0.01 0.01 0.01 0.01 0.01 0.02 0.02 0.02 0.03 0.04 0.03 0.04 0.06 0.07 0.09 0.08 0.06 0.05 0.06 0.07 0.06 0.04 0.04 0.03 0.03 0.02 0.02 0.02 0.03 0.03 0.03 0.03 0.03 0.04
0.02 0.01 0.01 0.01 0.01 0.01 0.01 0.01 0.01 0.01 0.01 0.01 0.01 0.02 0.03 0.03 0.02 0.02 0.02 0.01 0.02 0.02 0.02 0.03 0.04 0.03 0.02 0.03 0.04 0.06 0.04 0.04 0.04 0.04 0.02 0.01 0.01 0.02 0.03 0.03 0.03 0.03 0.04
0.02 0.01 0.01 0.01 0.01 0.01 0.02 0.02 0.02 0.02 0.01 0.01 0.01 0.01 0.02 0.03 0.02 0.01 0.01 0.01 0.02 0.02 0.02 0.02 0.02 0.02 0.02 0.01 0.02 0.04 0.05 0.06 0.04 0.03 0.02 0.01 0.01 0.03 0.04 0.02 0.02 0.03 0.03
0.02 0.02 0.01 0.01 0.01 0.01 0.01 0.02 0.02 0.03 0.02 0.02 0.01 0.01 0.01 0.01 0.01 0.01 0.02 0.01 0.01 0.03 0.02 0.02 0.02 0.02 0.02 0.01 0.02 0.02 0.03 0.04 0.06 0.05 0.02 0.01 0.02 0.02 0.03 0.03 0.02 0.02 0.03
0.02 0.03 0.02 0.02 0.02 0.01 0.01 0.01 0.02 0.03 0.04 0.03 0.02 0.02 0.02 0.02 0.01 0.02 0.02 0.02 0.02 0.02 0.03 0.03 0.02 0.02 0.01 0.02 0.03 0.03 0.02 0.02 0.04 0.07 0.04 0.02 0.03 0.03 0.02 0.02 0.03 0.03 0.04
0.02 0.04 0.04 0.03 0.02 0.01 0.01 0.01 0.02 0.03 0.04 0.04 0.04 0.04 0.03 0.02 0.03 0.02 0.03 0.03 0.03 0.02 0.02 0.03 0.03 0.02 0.01 0.02 0.02 0.02 0.01 0.02 0.02 0.03 0.05 0.05 0.06 0.05 0.04 0.04 0.03 0.03 0.04
0.01 0.03 0.05 0.05 0.04 0.03 0.02 0.01 0.02 0.02 0.03 0.04 0.04 0.05 0.05 0.03 0.03 0.04 0.04 0.03 0.03 0.03 0.02 0.03 0.03 0.03 0.03 0.02 0.03 0.01 0.01 0.01 0.01 0.02 0.04 0.08 0.10 0.06 0.05 0.04 0.04 0.04 0.04
0.02 0.02 0.02 0.05 0.06 0.05 0.04 0.02 0.02 0.02 0.02 0.02 0.02 0.03 0.03 0.03 0.03 0.03 0.03 0.04 0.04 0.04 0.04 0.03 0.03 0.03 0.04 0.03 0.02 0.00 0.00 0.00 0.01 0.01 0.05 0.11 0.10 0.07 0.04 0.03 0.03 0.04 0.03
0.01 0.02 0.02 0.03 0.04 0.03 0.03 0.03 0.03 0.03 0.02 0.02 0.01 0.01 0.02 0.02 0.02 0.02 0.03 0.04 0.04 0.04 0.05 0.04 0.02 0.03 0.05 0.04 0.02 0.01 0.00 0.00 0.00 0.01 0.05 0.09 0.09 0.07 0.05 0.04 0.03 0.04 0.04
0.01 0.01 0.03 0.03 0.02 0.01 0.01 0.02 0.02 0.03 0.04 0.03 0.01 0.01 0.01 0.01 0.01 0.02 0.03 0.05 0.07 0.04 0.05 0.04 0.02 0.03 0.05 0.07 0.03 0.01 0.01 0.00 0.00 0.01 0.04 0.07 0.07 0.06 0.05 0.04 0.04 0.05 0.05
0.01 0.01 0.01 0.03 0.02 0.01 0.01 0.02 0.01 0.02 0.03 0.04 0.02 0.01 0.00 0.01 0.01 0.01 0.02 0.03 0.05 0.04 0.03 0.03 0.02 0.04 0.05 0.08 0.07 0.03 0.02 0.01 0.01 0.01 0.02 0.06 0.06 0.05 0.04 0.04 0.04 0.04 0.04
0.01 0.01 0.01 0.02 0.03 0.01 0.01 0.02 0.02 0.01 0.02 0.02 0.02 0.01 0.01 0.01 0.01 0.01 0.02 0.02 0.03 0.04 0.03 0.02 0.02 0.03 0.05 0.08 0.09 0.05 0.03 0.01 0.01 0.01 0.01 0.03 0.05 0.04 0.04 0.05 0.07 0.06 0.05
0.01 0.01 0.01 0.02 0.02 0.02 0.01 0.02 0.03 0.03 0.02 0.01 0.02 0.01 0.01 0.01 0.01 0.02 0.03 0.02 0.03 0.03 0.03 0.02 0.02 0.03 0.04 0.05 0.08 0.06 0.04 0.02 0.01 0.01 0.01 0.02 0.03 0.03 0.03 0.04 0.04 0.07 0.08
0.02 0.02 0.02 0.02 0.01 0.01 0.02 0.01 0.02 0.05 0.04 0.02 0.01 0.01 0.01 0.02 0.01 0.01 0.02 0.02 0.02 0.03 0.03 0.02 0.01 0.02 0.02 0.03 0.06 0.07 0.04 0.03 0.01 0.01 0.01 0.01 0.02 0.02 0.03 0.04 0.04 0.05 0.05
0.01 0.01 0.01 0.01 0.02 0.01 0.01 0.01 0.01 0.03 0.05 0.04 0.01 0.01 0.01 0.02 0.01 0.01 0.01 0.02 0.02 0.02 0.02 0.01 0.01 0.01 0.01 0.02 0.02 0.06 0.05 0.03 0.02 0.01 0.02 0.01 0.01 0.01 0.02 0.02 0.03 0.02 0.02
0.01 0.01 0.02 0.02 0.02 0.02 0.01 0.01 0.01 0.02 0.04 0.05 0.04 0.02 0.01 0.01 0.02 0.02 0.01 0.01 0.01 0.01 0.01 0.01 0.01 0.01 0.01 0.02 0.02 0.05 0.06 0.04 0.02 0.01 0.01 0.02 0.01 0.01 0.01 0.01 0.01 0.01 0.01
0.02 0.02 0.02 0.02 0.02 0.01 0.01 0.01 0.01 0.01 0.02 0.04 0.05 0.03 0.01 0.01 0.01 0.02 0.02 0.02 0.02 0.01 0.01 0.01 0.01 0.01 0.01 0.02 0.02 0.04 0.04 0.04 0.03 0.02 0.01 0.02 0.01 0.01 0.01 0.01 0.01 0.01 0.01
0.03 0.02 0.01 0.01 0.01 0.01 0.01 0.01 0.01 0.01 0.02 0.03 0.05 0.05 0.03 0.01 0.01 0.01 0.01 0.02 0.02 0.02 0.01 0.01 0.01 0.01 0.01 0.01 0.02 0.02 0.03 0.03 0.03 0.02 0.02 0.02 0.02 0.01 0.02 0.02 0.02 0.02 0.02
0.03 0.02 0.01 0.01 0.01 0.01 0.01 0.01 0.01 0.01 0.01 0.02 0.03 0.05 0.04 0.02 0.01 0.01 0.01 0.01 0.03 0.02 0.01 0.01 0.01 0.01 0.02 0.02 0.02 0.02 0.02 0.02 0.03 0.02 0.02 0.02 0.02 0.02 0.02 0.02 0.02 0.01 0.01
0.04 0.02 0.01 0.01 0.01 0.01 0.01 0.01 0.01 0.01 0.01 0.01 0.02 0.02 0.04 0.03 0.02 0.01 0.01 0.01 0.03 0.03 0.02 0.02 0.01 0.01 0.01 0.02 0.02 0.02 0.02 0.01 0.01 0.02 0.01 0.01 0.01 0.01 0.01 0.01 0.01 0.01 0.01
0.02 0.02 0.01 0.01 0.01 0.01 0.01 0.01 0.01 0.01 0.01 0.01 0.01 0.01 0.02 0.02 0.03 0.02 0.01 0.02 0.03 0.04 0.04 0.03 0.02 0.01 0.01 0.01 0.01 0.01 0.01 0.01 0.01 0.01 0.01 0.01 0.01 0.01 0.00 0.01 0.00 0.00 0.00
0.01 0.01 0.01 0.01 0.01 0.00 0.01 0.01 0.01 0.01 0.01 0.01 0.01 0.01 0.01 0.02 0.04 0.04 0.02 0.02 0.02 0.02 0.02 0.01 0.01 0.00 0.00 0.00 0.01 0.01 0.01 0.01 0.01 0.01 0.01 0.01 0.01 0.01 0.01 0.00 0.00 0.00 0.00
MSLP
1015.70 1016.18 1016.59 1016.92 1017.21 1017.48 1017.76 1018.06 1018.38 1018.72 1019.04 1019.34 1019.60 1019.81 1019.98 1020.13 1020.29 1020.47 1020.69 1020.94 1021.21 1021.47 1021.71 1021.89 1022.02 1022.09 1022.12 1022.12 1022.12 1022.13 1022.15 1022.20 1022.25 1022.30 1022.34 1022.34 1022.31 1022.24 1022.13 1021.99 1021.81 1021.60 1021.36
1015.99 1016.51 1016.96 1017.34 1017.67 1017.98 1018.30 1018.65 1019.04 1019.46 1019.87 1020.25 1020.58 1020.84 1021.03 1021.16 1021.26 1021.36 1021.48 1021.63 1021.81 1022.01 1022.22 1022.41 1022.56 1022.67 1022.74 1022.78 1022.80 1022.82 1022.85 1022.90 1022.97 1023.04 1023.09 1023.12 1023.11 1023.05 1022.94 1022.77 1022.56 1022.32 1022.05
1016.22 1016.79 1017.29 1017.73 1018.11 1018.48 1018.86 1019.27 1019.73 1020.22 1020.71 1021.18 1021.58 1021.90 1022.11 1022.24 1022.30 1022.33 1022.35 1022.40 1022.49 1022.62 1022.78 1022.95 1023.11 1023.24 1023.34 1023.40 1023.45 1023.48 1023.53 1023.59 1023.66 1023.74 1023.82 1023.87 1023.87 1023.82 1023.70 1023.52 1023.28 1023.01 1022.72
1016.37 1016.99 1017.56 1018.06 1018.51 1018.93 1019.37 1019.84 1020.35 1020.91 1021.47 1022.02 1022.49 1022.87 1023.13 1023.27 1023.32 1023.30 1023.25 1023.22 1023.22 1023.28 1023.37 1023.51 1023.65 1023.78 1023.89 1023.97 1024.03 1024.08 1024.13 1024.20 1024.28 1024.37 1024.46 1024.52 1024.54 1024.49 1024.37 1024.17 1023.92 1023.63 1023.32
1016.45 1017.11 1017.73 1018.30 1018.81 1019.30 1019.78 1020.29 1020.84 1021.44 1022.05 1022.65 1023.20 1023.64 1023.96 1024.15 1024.21 1024.19 1024.11 1024.03 1023.97 1023.96 1024.00 1024.09 1024.20 1024.31 1024.42 1024.49 1024.55 1024.60 1024.65 1024.71 1024.80 1024.89 1024.99 1025.06 1025.08 1025.04 1024.92 1024.72 1024.45 1024.15 1023.83
1016.45 1017.15 1017.82 1018.45 1019.02 1019.55 1020.06 1020.59 1021.15 1021.76 1022.40 1023.03 1023.62 1024.13 1024.52 1024.78 1024.90 1024.91 1024.85 1024.76 1024.68 1024.64 1024.64 1024.69 1024.76 1024.85 1024.93 1024.99 1025.04 1025.08 1025.12 1025.17 1025.24 1025.33 1025.42 1025.49 1025.52 1025.48 1025.36 1025.16 1024.89 1024.59 1024.27
1016.41 1017.13 1017.84 1018.52 1019.13 1019.69 1020.22 1020.74 1021.28 1021.87 1022.49 1023.13 1023.75 1024.31 1024.77 1025.11 1025.32 1025.41 1025.42 1025.37 1025.31 1025.27 1025.26 1025.29 1025.34 1025.40 1025.46 1025.50 1025.53 1025.55 1025.57 1025.60 1025.66 1025.73 1025.81 1025.87 1025.89 1025.85 1025.74 1025.55 1025.29 1024.99 1024.68
1016.34 1017.07 1017.82 1018.52 1019.17 1019.75 1020.27 1020.77 1021.27 1021.81 1022.39 1023.01 1023.63 1024.22 1024.74 1025.16 1025.47 1025.66 1025.76 1025.80 1025.80 1025.80 1025.82 1025.85 1025.91 1025.97 1026.01 1026.05 1026.06 1026.06 1026.07 1026.08 1026.11 1026.15 1026.21 1026.25 1026.26 1026.22 1026.11 1025.94 1025.70 1025.41 1025.11
1016.25 1017.00 1017.77 1018.51 1019.18 1019.77 1020.28 1020.75 1021.20 1021.67 1022.18 1022.74 1023.33 1023.92 1024.47 1024.96 1025.36 1025.66 1025.87 1026.01 1026.11 1026.19 1026.26 1026.34 1026.43 1026.51 1026.58 1026.62 1026.64 1026.64 1026.63 1026.62 1026.63 1026.65 1026.67 1026.69 1026.68 1026.64 1026.53 1026.37 1026.15 1025.89 1025.60
1016.14 1016.91 1017.71 1018.48 1019.18 1019.78 1020.29 1020.73 1021.13 1021.52 1021.96 1022.44 1022.96 1023.52 1024.07 1024.59 1025.05 1025.44 1025.75 1026.00 1026.21 1026.38 1026.55 1026.71 1026.86 1026.99 1027.11 1027.19 1027.23 1027.25 1027.25 1027.23 1027.22 1027.22 1027.22 1027.21 1027.18 1027.12 1027.02 1026.87 1026.67 1026.43 1026.16
1016.00 1016.79 1017.63 1018.44 1019.18 1019.81 1020.33 1020.75 1021.10 1021.43 1021.78 1022.18 1022.62 1023.11 1023.62 1024.14 1024.62 1025.06 1025.44 1025.79 1026.09 1026.37 1026.64 1026.89 1027.13 1027.35 1027.54 1027.69 1027.79 1027.85 1027.87 1027.87 1027.85 1027.84 1027.81 1027.78 1027.73 1027.66 1027.55 1027.40 1027.22 1026.99 1026.74
1015.81 1016.64 1017.51 1018.37 1019.16 1019.83 1020.38 1020.80 1021.14 1021.42 1021.70 1022.00 1022.35 1022.76 1023.20 1023.66 1024.13 1024.57 1025.00 1025.40 1025.79 1026.16 1026.52 1026.88 1027.23 1027.55 1027.83 1028.06 1028.24 1028.36 1028.43 1028.46 1028.45 1028.43 1028.40 1028.35 1028.28 1028.20 1028.08 1027.93 1027.75 1027.54 1027.30
1015.55 1016.41 1017.33 1018.24 1019.08 1019.81 1020.40 1020.85 1021.19 1021.45 1021.68 1021.91 1022.18 1022.49 1022.84 1023.23 1023.64 1024.06 1024.49 1024.91 1025.35 1025.79 1026.24 1026.69 1027.14 1027.56 1027.94 1028.26 1028.52 1028.71 1028.84 1028.92 1028.95 1028.94 1028.91 1028.85 1028.78 1028.68 1028.55 1028.40 1028.22 1028.01 1027.78
1015.22 1016.11 1017.07 1018.02 1018.91 1019.69 1020.33 1020.83 1021.20 1021.47 1021.68 1021.87 1022.07 1022.30 1022.56 1022.87 1023.21 1023.58 1023.97 1024.40 1024.86 1025.34 1025.85 1026.37 1026.89 1027.40 1027.87 1028.28 1028.62 1028.88 1029.08 1029.21 1029.28 1029.30 1029.28 1029.24 1029.16 1029.06 1028.93 1028.77 1028.59 1028.39 1028.16
1014.83 1015.74 1016.71 1017.69 1018.61 1019.44 1020.13 1020.69 1021.11 1021.42 1021.64 1021.82 1021.99 1022.16 1022.36 1022.60 1022.87 1023.18 1023.54 1023.94 1024.39 1024.89 1025.43 1025.99 1026.57 1027.13 1027.66 1028.13 1028.53 1028.86 1029.12 1029.30 1029.41 1029.48 1029.49 1029.47 1029.41 1029.32 1029.20 1029.04 1028.86 1028.65 1028.42
1014.42 1015.32 1016.28 1017.25 1018.19 1019.04 1019.78 1020.39 1020.87 1021.24 1021.51 1021.71 1021.89 1022.05 1022.22 1022.41 1022.63 1022.90 1023.22 1023.60 1024.03 1024.52 1025.06 1025.64 1026.23 1026.81 1027.37 1027.87 1028.31 1028.68 1028.98 1029.21 1029.37 1029.48 1029.54 1029.55 1029.53 1029.46 1029.36 1029.22 1029.04 1028.84 1028.62
1014.01 1014.88 1015.80 1016.74 1017.66 1018.51 1019.28 1019.93 1020.47 1020.91 1021.25 1021.51 1021.73 1021.92 1022.10 1022.29 1022.50 1022.75 1023.05 1023.40 1023.82 1024.29 1024.81 1025.37 1025.95 1026.52 1027.06 1027.57 1028.01 1028.39 1028.71 1028.97 1029.17 1029.33 1029.44 1029.50 1029.52 1029.50 1029.44 1029.33 1029.18 1028.99 1028.78
1013.66 1014.47 1015.33 1016.21 1017.07 1017.90 1018.67 1019.35 1019.95 1020.45 1020.87 1021.21 1021.50 1021.75 1021.98 1022.21 1022.44 1022.70 1023.00 1023.34 1023.74 1024.19 1024.69 1025.21 1025.75 1026.28 1026.79 1027.26 1027.68 1028.05 1028.37 1028.64 1028.87 1029.07 1029.23 1029.35 1029.43 1029.47 1029.46 1029.40 1029.29 1029.13 1028.95
1013.39 1014.12 1014.89 1015.69 1016.49 1017.27 1018.01 1018.71 1019.34 1019.90 1020.40 1020.83 1021.21 1021.54 1021.83 1022.12 1022.39 1022.69 1023.01 1023.36 1023.76 1024.19 1024.66 1025.14 1025.63 1026.11 1026.56 1026.98 1027.35 1027.69 1027.99 1028.26 1028.51 1028.74 1028.94 1029.12 1029.27 1029.37 1029.43 1029.43 1029.38 1029.27 1029.13
1013.18 1013.83 1014.52 1015.22 1015.95 1016.67 1017.38 1018.07 1018.72 1019.33 1019.89 1020.39 1020.85 1021.26 1021.63 1021.98 1022.32 1022.66 1023.01 1023.39 1023.79 1024.22 1024.66 1025.11 1025.55 1025.97 1026.37 1026.72 1027.04 1027.34 1027.61 1027.87 1028.12 1028.37 1028.61 1028.84 1029.04 1029.21 1029.34 1029.41 1029.43 1029.39 1029.31
1013.01 1013.60 1014.21 1014.83 1015.48 1016.14 1016.81 1017.48 1018.14 1018.77 1019.37 1019.93 1020.45 1020.93 1021.36 1021.78 1022.17 1022.56 1022.95 1023.35 1023.77 1024.19 1024.62 1025.05 1025.45 1025.83 1026.17 1026.47 1026.75 1027.00 1027.24 1027.48 1027.72 1027.98 1028.24 1028.51 1028.76 1028.99 1029.18 1029.32 1029.41 1029.45 1029.44
1012.86 1013.40 1013.94 1014.51 1015.09 1015.70 1016.34 1016.98 1017.63 1018.27 1018.89 1019.48 1020.03 1020.55 1021.03 1021.48 1021.92 1022.35 1022.77 1023.20 1023.63 1024.07 1024.50 1024.91 1025.30 1025.64 1025.95 1026.22 1026.46 1026.68 1026.90 1027.11 1027.35 1027.60 1027.87 1028.16 1028.44 1028.70 1028.94 1029.14 1029.30 1029.41 1029.47
1012.67 1013.18 1013.69 1014.22 1014.77 1015.34 1015.94 1016.56 1017.20 1017.83 1018.45 1019.04 1019.61 1020.14 1020.65 1021.12 1021.58 1022.04 1022.49 1022.94 1023.39 1023.84 1024.28 1024.69 1025.08 1025.42 1025.72 1025.97 1026.20 1026.41 1026.60 1026.81 1027.03 1027.27 1027.54 1027.81 1028.10 1028.38 1028.64 1028.88 1029.09 1029.26 1029.38
1012.42 1012.93 1013.43 1013.94 1014.47 1015.02 1015.60 1016.21 1016.82 1017.44 1018.05 1018.63 1019.20 1019.73 1020.24 1020.73 1021.20 1021.66 1022.13 1022.60 1023.07 1023.54 1023.99 1024.42 1024.82 1025.17 1025.48 1025.75 1025.99 1026.20 1026.39 1026.59 1026.80 1027.03 1027.27 1027.53 1027.79 1028.06 1028.32 1028.57 1028.80 1029.01 1029.18
1012.10 1012.62 1013.12 1013.63 1014.16 1014.71 1015.28 1015.87 1016.48 1017.08 1017.68 1018.26 1018.81 1019.34 1019.85 1020.34 1020.82 1021.30 1021.78 1022.26 1022.75 1023.23 1023.70 1024.15 1024.57 1024.95 1025.29 1025.58 1025.84 1026.07 1026.29 1026.49 1026.69 1026.91 1027.12 1027.35 1027.58 1027.81 1028.04 1028.27 1028.49 1028.70 1028.90
1011.72 1012.25 1012.77 1013.29 1013.82 1014.37 1014.94 1015.52 1016.12 1016.72 1017.32 1017.89 1018.45 1018.99 1019.51 1020.01 1020.50 1020.99 1021.49 1021.99 1022.49 1022.99 1023.48 1023.95 1024.39 1024.79 1025.16 1025.49 1025.78 1026.04 1026.28 1026.50 1026.71 1026.91 1027.11 1027.30 1027.48 1027.67 1027.85 1028.03 1028.21 1028.40 1028.59
Thickness
5720 5720 5719 5717 5717 5716 5716 5716 5717 5716 5716 5715 5715 5716 5716 5715 5715 5714 5711 5709 5710 5711 5712 5712 5712 5712 5712 5712 5711 5711 5710 5710 5711 5711 5711 5711 5712 5713 5713 5714 5714 5715 5716
5715 5714 5714 5712 5712 5711 5711 5711 5711 5710 5710 5709 5709 5709 5709 5709 5709 5708 5707 5706 5704 5705 5706 5706 5707 5707 5707 5707 5706 5706 5706 5706 5706 5706 5706 5707 5707 5707 5708 5708 5709 5710 5710
5711 5710 5709 5708 5707 5706 5707 5706 5706 5705 5704 5704 5703 5703 5703 5703 5703 5703 5703 5702 5701 5699 5699 5700 5700 5700 5701 5701 5701 5701 5701 5701 5701 5701 5701 5702 5702 5702 5703 5703 5704 5704 5705
5707 5705 5704 5703 5702 5702 5702 5701 5701 5700 5699 5699 5698 5698 5697 5696 5697 5697 5698 5698 5697 5696 5694 5693 5693 5694 5694 5695 5695 5696 5696 5696 5696 5696 5696 5696 5697 5697 5698 5698 5699 5699 5699
5702 5700 5699 5698 5698 5698 5697 5697 5696 5695 5694 5692 5692 5691 5692 5692 5691 5691 5692 5692 5692 5691 5691 5688 5688 5688 5688 5689 5689 5690 5690 5690 5690 5691 5691 5691 5692 5692 5693 5693 5694 5694 5695
5697 5696 5694 5694 5694 5693 5692 5691 5690 5689 5688 5688 5688 5686 5686 5686 5686 5686 5687 5687 5687 5687 5686 5685 5685 5683 5682 5682 5683 5683 5684 5684 5685 5685 5686 5686 5687 5687 5688 5688 5689 5689 5690
5693 5691 5691 5690 5688 5688 5687 5687 5685 5684 5683 5684 5682 5681 5681 5682 5682 5681 5681 5681 5681 5681 5681 5681 5681 5680 5679 5677 5677 5677 5678 5679 5679 5680 5680 5681 5682 5682 5683 5684 5684 5684 5685
5688 5687 5686 5684 5682 5681 5681 5681 5680 5679 5679 5679 5679 5677 5675 5675 5675 5677 5676 5675 5676 5676 5676 5676 5676 5676 5676 5675 5673 5671 5671 5672 5674 5674 5675 5676 5676 5677 5678 5678 5679 5679 5680
5684 5682 5681 5680 5678 5677 5676 5676 5676 5674 5673 5674 5676 5674 5673 5670 5669 5671 5671 5671 5670 5670 5671 5670 5671 5671 5671 5670 5669 5666 5666 5666 5668 5669 5669 5670 5671 5672 5673 5673 5674 5674 5674
5679 5678 5676 5675 5674 5673 5672 5672 5672 5671 5669 5669 5669 5669 5672 5670 5666 5664 5665 5666 5665 5665 5665 5665 5665 5665 5665 5664 5662 5660 5660 5660 5661 5663 5663 5665 5666 5666 5667 5668 5668 5668 5668
5675 5673 5672 5671 5670 5668 5667 5667 5667 5667 5667 5666 5665 5664 5664 5664 5666 5663 5659 5659 5660 5660 5660 5659 5659 5659 5659 5658 5657 5656 5655 5655 5656 5656 5657 5658 5659 5660 5661 5662 5662 5662 5663
5671 5670 5668 5667 5666 5664 5664 5662 5662 5661 5662 5661 5661 5661 5660 5659 5658 5658 5657 5655 5655 5655 5655 5654 5654 5653 5653 5653 5652 5650 5649 5649 5650 5650 5651 5652 5653 5654 5655 5655 5656 5656 5656
5668 5666 5665 5663 5662 5660 5659 5658 5658 5658 5658 5656 5656 5656 5656 5655 5654 5653 5652 5652 5650 5650 5649 5650 5649 5648 5648 5648 5647 5645 5644 5644 5644 5645 5645 5646 5647 5647 5648 5649 5649 5649 5650
5666 5663 5661 5660 5658 5656 5655 5654 5654 5654 5653 5653 5652 5651 5651 5650 5649 5648 5647 5646 5645 5645 5645 5645 5645 5644 5643 5642 5641 5640 5641 5640 5639 5639 5639 5640 5640 5641 5641 5642 5642 5642 5643
5662 5660 5658 5657 5654 5652 5651 5651 5650 5650 5649 5648 5648 5647 5646 5645 5643 5642 5642 5641 5640 5639 5638 5638 5638 5638 5637 5636 5635 5636 5637 5635 5634 5634 5634 5634 5634 5634 5635 5635 5635 5635 5636
5659 5657 5654 5653 5651 5649 5648 5646 5646 5645 5645 5643 5642 5642 5641 5640 5639 5637 5636 5635 5635 5634 5633 5634 5633 5633 5631 5631 5630 5631 5630 5629 5629 5628 5628 5628 5628 5628 5628 5628 5628 5629 5630
5655 5653 5651 5649 5647 5645 5644 5642 5641 5640 5640 5639 5639 5638 5637 5636 5634 5633 5631 5630 5629 5629 5627 5628 5628 5628 5626 5626 5625 5626 5625 5625 5625 5623 5622 5622 5621 5621 5621 5621 5621 5621 5621
5651 5649 5647 5645 5643 5641 5640 5639 5637 5636 5636 5635 5634 5634 5633 5631 5630 5629 5627 5626 5625 5625 5624 5622 5623 5622 5621 5621 5621 5620 5621 5620 5620 5618 5616 5616 5615 5614 5614 5614 5614 5613 5613
5647 5644 5643 5640 5638 5637 5636 5635 5634 5633 5632 5631 5631 5630 5630 5629 5627 5626 5624 5622 5621 5621 5620 5619 5618 5617 5616 5616 5615 5615 5615 5614 5614 5613 5611 5610 5609 5608 5607 5607 5606 5606 5606
5642 5640 5638 5636 5634 5632 5631 5630 5629 5629 5628 5627 5627 5626 5626 5626 5625 5623 5621 5619 5617 5616 5615 5615 5614 5613 5611 5611 5610 5610 5610 5609 5609 5609 5607 5605 5603 5602 5601 5600 5600 5600 5599
5637 5636 5634 5632 5630 5628 5627 5625 5625 5624 5624 5623 5622 5622 5621 5620 5618 5617 5616 5615 5613 5612 5611 5611 5610 5610 5608 5606 5606 5606 5605 5604 5604 5603 5602 5600 5599 5598 5597 5595 5594 5593 5593
5632 5630 5628 5627 5625 5623 5620 5618 5618 5619 5620 5619 5618 5617 5616 5614 5613 5610 5609 5608 5607 5608 5608 5607 5607 5606 5606 5604 5602 5600 5600 5599 5598 5597 5595 5594 5593 5593 5592 5590 5588 5587 5586
5626 5624 5622 5621 5620 5618 5614 5612 5611 5613 5614 5614 5614 5613 5612 5611 5608 5609 5606 5603 5602 5601 5601 5603 5603 5602 5601 5600 5597 5596 5595 5594 5592 5591 5588 5588 5587 5586 5585 5583 5581 5580 5579
5621 5619 5617 5616 5615 5613 5610 5608 5606 5608 5609 5609 5609 5609 5608 5607 5605 5604 5604 5602 5601 5599 5597 5597 5598 5598 5596 5594 5592 5591 5589 5588 5587 5584 5581 5582 5581 5580 5579 5577 5575 5574 5572
5615 5613 5612 5611 5610 5609 5605 5603 5601 5603 5604 5604 5604 5603 5602 5602 5598 5597 5598 5598 5596 5595 5592 5590 5589 5589 5587 5586 5585 5584 5583 5581 5581 5579 5576 5575 5575 5573 5573 5572 5570 5568 5567
5609 5608 5607 5606 5605 5604 5601 5598 5597 5599 5600 5599 5598 5597 5594 5594 5592 5590 5593 5593 5592 5591 5589 5587 5585 5584 5583 5581 5578 5578 5577 5576 5575 5573 5571 5568 5568 5566 5567 5567 5565 5563 5562